Location: Kile Knob Observatory
(38.6083°N, 79.4792°W)
Time: 03:23:14
(UTC-04:00)

Envisat - Visible Passes

Search period start: 16 October 2019 00:00
Search period end: 26 October 2019 00:00
Orbit: 764 x 766 km, 98.1° (Epoch: 15 October)

Date Brightness Start Highest point End Pass type
(mag) Time Alt. Az. Time Alt. Az. Time Alt. Az.
16 Oct 2.9 19:18:35 10° SSE 19:23:38 78° ENE 19:28:44 10° N visible
16 Oct 6.3 21:02:09 10° W 21:03:12 11° W 21:04:15 10° WNW visible
17 Oct 5.2 20:21:55 10° SSW 20:26:04 25° W 20:30:16 10° NW visible
18 Oct 6.5 06:54:27 10° ENE 06:56:42 13° E 06:58:56 10° ESE visible
18 Oct 3.6 19:44:10 10° S 19:49:08 59° W 19:54:10 10° NNW visible
19 Oct 3.0 19:07:25 10° SSE 19:12:24 61° ENE 19:17:25 10° N visible
19 Oct 6.0 20:49:12 10° WSW 20:51:48 14° W 20:54:27 10° WNW visible
20 Oct 4.8 20:10:14 10° SSW 20:14:44 32° W 20:19:17 10° NNW visible
21 Oct 3.2 19:32:49 10° S 19:37:52 75° WSW 19:42:57 10° NNW visible
22 Oct 3.2 18:56:21 10° SE 19:01:11 48° ENE 19:06:04 10° N visible
22 Oct 5.7 20:37:00 10° SW 20:40:26 18° W 20:43:53 10° NW visible
23 Oct 6.1 07:07:37 10° NE 07:11:06 18° E 07:14:34 10° SE visible
23 Oct 4.3 19:58:40 10° SSW 20:03:25 41° W 20:08:14 10° NNW visible
24 Oct 3.0 19:21:32 10° SSE 19:26:36 85° E 19:31:42 10° NNW visible
25 Oct 3.5 18:45:21 10° SE 18:49:59 38° ENE 18:54:38 10° N visible
25 Oct 5.4 20:25:05 10° SSW 20:29:04 23° W 20:33:05 10° NW visible
